カタログに戻る

STARLINK-31856

運用中通信VLEO
NORAD 59960·PAYLOAD·🇺🇸 United States

打ち上げ Jun 5, 2024 から Cape Canaveral Space Force Station

Loading…

次のパス (今後24時間)

TLE

最新Source: CelesTrak SupGP

元期: Sep 15, 2026, 02:21 UTC

1 59960C 24107R   26258.09840278 -.00017794  00000+0 -52558-3 0  2589
2 59960  53.1577 262.6252 0001088  83.4051 140.2093 15.34407673    12

AllMySatでSTARLINK-31856をリアルタイム追跡

Download on the App Store